User: anonymous   Login
Location: NJAA Observatory
(40.6819°N, 74.8979°W)
Time: 15:17:37
(UTC-04:00)
Language:

Meteor 1-28 Rocket - Orbit

View from above orbital plane
View from above orbital plane
View from above satellite
View from above satellite

Ground track
Ground track

The orbit data is extracted from the following two-line orbital elements,

1 10114U 77057B   18171.50265846  .00000254  00000-0  15976-4 0  9990
2 10114  97.2218 340.8065 0015584 109.5628 250.7290 15.17052703239390
Epoch (UTC): 20 June 2018 12:03:49
Eccentricity: 0.0015584
inclination: 97.2218°
perigee height: 504 km
apogee height: 525 km
right ascension of ascending node: 340.8065°
argument of perigee: 109.5628°
revolutions per day: 15.17052703
mean anomaly at epoch: 250.7290°
orbit number at epoch: 23939

The dashed part of the orbit path shows where the satellite is in the earth's shadow,  

DLR